User: anonymous   Login
Location: Croydon
(51.3762°N, 0.0982°W)
Time: 12:58:34
(UTC+00:00)
Language:

KKS-1 - Orbit

View from above orbital plane
View from above orbital plane
View from above satellite
View from above satellite

Ground track
Ground track

The orbit data is extracted from the following two-line orbital elements,

1 33499U 09002H   19324.90588920 +.00000104 +00000-0 +23382-4 0  9996
2 33499 098.3361 168.4825 0010358 074.5428 285.6923 14.75480753581688
Epoch (UTC): 20 November 2019 21:44:28
Eccentricity: 0.0010358
inclination: 98.3361°
perigee height: 636 km
apogee height: 651 km
right ascension of ascending node: 168.4825°
argument of perigee: 74.5428°
revolutions per day: 14.75480753
mean anomaly at epoch: 285.6923°
orbit number at epoch: 58168

The dashed part of the orbit path shows where the satellite is in the earth's shadow,  

DLR